TimeCST,TemperatureF,Dew PointF,Humidity,Sea Level PressureIn,VisibilityMPH,Wind Direction,Wind SpeedMPH,Gust SpeedMPH,PrecipitationIn,Events,Conditions,WindDirDegrees,DateUTC
12:26 AM,68.0,68.0,100,29.81,9.0,South,12.7,-,N/A,,Overcast,180,2012-12-20 06:26:00
12:53 AM,69.1,68.0,96,29.79,8.0,South,17.3,24.2,0.00,,Overcast,170,2012-12-20 06:53:00
1:53 AM,70.0,69.1,97,29.80,10.0,South,11.5,-,N/A,,Overcast,190,2012-12-20 07:53:00
2:30 AM,71.6,69.8,94,29.80,10.0,South,13.8,19.6,0.00,,Overcast,190,2012-12-20 08:30:00
2:53 AM,71.1,69.1,93,29.79,10.0,South,13.8,20.7,0.00,,Overcast,180,2012-12-20 08:53:00
3:53 AM,71.1,69.1,93,29.78,10.0,South,10.4,-,0.00,,Overcast,190,2012-12-20 09:53:00
4:08 AM,71.6,69.8,94,29.79,10.0,South,11.5,23.0,N/A,,Overcast,190,2012-12-20 10:08:00
4:43 AM,69.8,68.0,94,29.79,5.0,SSW,12.7,27.6,0.04,Rain,Rain,210,2012-12-20 10:43:00
4:53 AM,69.1,66.0,90,29.78,10.0,SW,6.9,19.6,0.04,Rain,Light Rain,230,2012-12-20 10:53:00
5:26 AM,69.8,66.2,88,29.78,10.0,SSW,8.1,16.1,N/A,,Overcast,200,2012-12-20 11:26:00
5:53 AM,69.1,66.9,93,29.78,10.0,SSW,10.4,-,N/A,,Mostly Cloudy,200,2012-12-20 11:53:00
6:01 AM,69.8,66.2,88,29.79,10.0,SSW,9.2,-,N/A,,Mostly Cloudy,210,2012-12-20 12:01:00
6:18 AM,59.0,55.4,88,29.85,7.0,NW,25.3,46.0,0.00,Rain,Light Rain,310,2012-12-20 12:18:00
6:24 AM,53.6,46.4,77,29.87,2.5,WNW,18.4,34.5,0.08,Rain,Heavy Rain,300,2012-12-20 12:24:00
6:28 AM,51.8,46.4,82,29.86,2.0,NW,15.0,32.2,0.09,Rain,Heavy Rain,310,2012-12-20 12:28:00
6:37 AM,51.8,46.4,82,29.86,8.0,NW,11.5,20.7,0.10,Rain,Light Rain,310,2012-12-20 12:37:00
6:53 AM,53.1,46.9,80,29.86,10.0,WNW,6.9,-,0.10,,Overcast,300,2012-12-20 12:53:00
7:53 AM,54.0,46.0,75,29.89,10.0,WNW,11.5,-,0.00,,Overcast,300,2012-12-20 13:53:00
8:53 AM,55.0,46.0,72,29.93,10.0,WNW,10.4,18.4,N/A,,Partly Cloudy,290,2012-12-20 14:53:00
9:53 AM,57.0,42.1,57,29.94,10.0,WNW,13.8,26.5,N/A,,Partly Cloudy,290,2012-12-20 15:53:00
10:53 AM,55.0,35.1,47,29.98,10.0,NW,16.1,33.4,N/A,,Clear,310,2012-12-20 16:53:00
11:53 AM,55.9,33.1,42,29.99,10.0,WNW,19.6,28.8,N/A,,Clear,300,2012-12-20 17:53:00
12:53 PM,54.0,27.0,35,30.00,10.0,NW,23.0,35.7,N/A,,Clear,310,2012-12-20 18:53:00
1:53 PM,55.0,28.0,35,30.01,10.0,NW,24.2,36.8,N/A,,Clear,320,2012-12-20 19:53:00
2:53 PM,55.0,27.0,34,30.03,10.0,NW,18.4,32.2,N/A,,Clear,320,2012-12-20 20:53:00
3:53 PM,53.1,27.0,37,30.06,10.0,NW,19.6,31.1,N/A,,Clear,320,2012-12-20 21:53:00
4:53 PM,50.0,27.0,41,30.10,10.0,NW,17.3,27.6,N/A,,Clear,320,2012-12-20 22:53:00
5:53 PM,48.9,28.0,44,30.14,10.0,NW,15.0,25.3,N/A,,Clear,310,2012-12-20 23:53:00
6:53 PM,48.0,27.0,44,30.19,10.0,NW,16.1,21.9,N/A,,Clear,310,2012-12-21 00:53:00
7:53 PM,46.0,26.1,46,30.22,10.0,WNW,10.4,-,N/A,,Clear,300,2012-12-21 01:53:00
8:53 PM,45.0,25.0,46,30.24,10.0,NW,9.2,-,N/A,,Clear,310,2012-12-21 02:53:00
9:53 PM,43.0,24.1,47,30.26,10.0,NW,11.5,-,N/A,,Clear,310,2012-12-21 03:53:00
10:53 PM,42.1,21.9,45,30.28,10.0,NW,9.2,-,N/A,,Clear,310,2012-12-21 04:53:00
11:53 PM,41.0,19.9,43,30.27,10.0,NNW,11.5,-,N/A,,Clear,330,2012-12-21 05:53:00